Theta_e
291 291 290 290 290 290 289 289 288 287 288 288 288 288 288 288 289 289 290 291 293 293 294 295 294 295 296 298 300 301 301 301 303 304 303 304 306 307 308 308 309 310 310 312 312 314 317 321 322 320 321 322 322 322
289 288 288 289 289 289 289 288 288 288 288 288 288 288 289 289 288 289 290 290 292 293 294 294 294 296 297 296 300 301 301 301 301 304 303 302 304 304 308 311 309 310 312 315 316 317 321 322 322 322 322 323 324 323
288 288 288 288 288 288 288 287 287 287 287 287 287 288 288 288 289 289 290 291 294 294 293 294 295 295 297 298 300 301 301 301 301 301 301 304 305 305 306 311 310 310 315 315 315 318 317 320 321 322 323 324 325 325
287 287 287 287 287 287 287 287 287 286 287 287 288 287 288 288 288 289 291 291 292 294 295 295 296 298 299 300 300 300 300 300 300 300 299 303 303 304 308 311 312 312 315 315 314 313 313 318 318 321 323 324 323 323
287 286 286 286 286 287 287 287 286 286 286 287 288 288 288 288 289 290 291 292 292 293 296 296 296 296 297 302 301 302 302 302 301 299 300 302 302 305 306 310 311 312 314 314 316 314 313 317 317 317 319 319 319 318
286 286 286 285 286 286 286 287 287 287 287 288 288 288 288 289 290 291 292 294 296 294 295 298 298 300 302 302 302 302 301 301 300 298 300 300 302 305 309 311 311 310 310 312 315 314 314 314 316 314 314 313 313 312
285 286 286 285 286 286 286 287 287 288 288 288 288 289 290 292 292 292 293 296 295 293 296 299 300 303 302 302 300 300 300 299 298 299 300 302 303 303 308 310 310 308 308 315 317 315 317 316 314 313 313 310 311 310
285 285 286 286 286 287 287 288 288 288 287 288 289 290 291 291 291 291 292 292 293 294 294 300 301 302 300 300 300 300 300 299 299 299 300 302 302 301 308 307 306 304 312 316 316 315 312 309 308 309 308 307 306 305
285 286 285 286 287 288 288 288 287 287 287 288 289 290 291 292 292 293 294 297 297 296 298 300 301 303 299 300 300 300 300 303 301 303 304 300 305 304 301 303 304 305 307 313 312 310 311 311 311 311 309 308 307 306
285 286 286 287 288 287 287 287 287 287 288 289 290 292 293 293 294 296 297 297 297 296 296 300 302 304 302 301 302 302 302 304 306 303 302 305 303 300 300 301 303 303 304 307 308 308 308 307 307 306 306 305 304 303
285 286 287 288 288 287 287 288 287 288 289 292 292 294 294 294 294 296 297 297 298 301 299 300 301 304 302 304 305 303 304 303 306 303 305 303 303 302 300 301 303 302 303 303 303 304 305 305 306 305 304 303 303 302
286 287 287 288 288 287 287 287 287 289 291 290 291 292 293 295 295 299 301 301 302 303 303 304 303 302 303 302 303 302 303 303 303 302 304 303 301 301 301 302 303 303 303 303 303 303 303 303 303 302 302 302 302 301
286 287 287 288 287 286 286 287 288 289 290 292 293 294 295 296 300 301 303 303 304 304 303 302 303 303 302 301 303 303 304 304 302 306 303 301 302 302 302 301 302 302 302 302 302 302 302 302 302 302 302 302 302 301
287 287 287 288 287 286 286 287 288 291 291 292 294 298 299 301 301 303 304 304 302 302 302 303 303 304 302 303 301 302 301 303 304 304 302 303 301 301 302 302 302 301 301 301 301 302 302 301 301 300 301 300 300 300
287 287 287 287 286 287 288 288 289 291 291 293 295 299 301 301 301 301 300 302 301 302 303 303 302 303 304 303 302 300 301 301 304 304 303 301 301 301 300 300 299 299 300 300 299 298 299 299 300 300 300 301 301 301
287 287 288 288 288 289 289 290 292 292 292 293 296 298 300 303 303 302 300 302 302 302 303 303 303 302 302 302 302 301 300 303 303 304 302 300 300 300 299 299 299 298 298 298 298 299 294 294 293 293 293 293 293 293
286 288 290 289 289 290 292 292 292 292 293 297 299 300 301 301 302 301 301 302 302 303 303 303 301 303 302 303 302 304 305 305 303 302 300 300 300 300 300 299 299 299 299 298 298 297 295 294 293 294 296 299 298 298
287 289 290 290 290 291 292 293 293 294 295 297 299 300 301 301 300 300 300 302 302 302 301 302 302 301 302 302 304 306 303 302 301 300 300 300 300 300 300 300 299 299 300 300 299 299 299 299 299 299 299 298 298 298
288 290 290 290 290 290 293 293 294 296 298 299 301 301 301 300 300 300 301 301 301 300 301 302 302 302 304 305 305 303 302 302 301 301 300 300 301 301 301 300 300 300 301 301 301 301 301 300 300 299 299 299 299 298
286 286 287 288 289 291 293 294 294 296 298 301 301 301 301 301 300 301 300 301 301 301 302 303 303 304 303 302 302 302 302 301 301 301 301 301 301 301 301 301 301 301 302 302 302 301 301 301 300 300 299 299 298 298
288 290 291 291 291 292 294 296 296 298 300 301 301 301 300 300 302 300 300 301 301 302 302 302 302 302 301 301 301 301 301 301 301 302 302 302 302 301 301 301 302 302 302 301 301 300 299 298 298 298 298 298 297 295
290 292 293 292 294 295 295 297 297 299 300 302 301 301 302 302 301 301 301 301 302 301 301 301 301 301 302 302 302 302 301 301 300 300 300 300 301 301 301 301 301 300 299 299 298 298 298 298 297 295 294 292 292 291
291 292 293 294 294 296 298 298 299 300 302 302 301 301 302 302 302 302 302 301 301 301 301 301 301 301 300 301 301 301 300 300 301 301 301 301 300 300 299 299 298 298 298 298 297 295 294 293 291 291 290 290 289 289
292 293 294 295 296 299 298 299 300 300 301 303 301 302 301 301 301 302 301 302 301 301 301 301 302 302 302 301 301 300 298 299 300 300 299 298 299 299 298 298 297 297 295 293 292 292 291 291 290 289 289 288 288 288
293 294 294 297 297 298 299 300 300 301 301 302 301 302 302 301 303 302 303 302 302 303 302 302 302 302 301 301 300 298 297 296 297 297 297 298 297 296 296 295 293 292 291 291 291 290 289 288 288 288 287 287 287 287
297 294 296 298 298 299 300 300 300 301 301 302 301 300 301 302 302 302 301 300 300 300 301 301 301 300 299 299 298 298 297 296 296 297 296 295 293 293 292 291 291 290 290 289 288 287 287 287 286 286 286 285 285 285
297 296 296 296 298 298 299 299 299 300 300 301 301 302 302 302 300 299 298 298 298 297 297 297 298 297 297 297 296 296 295 294 293 292 292 291 291 291 290 290 289 288 288 287 286 286 285 285 285 284 284 284 284 284
296 296 297 297 297 298 300 300 300 300 299 299 300 301 301 300 299 298 297 296 296 296 294 293 295 296 294 293 293 292 292 291 291 290 290 291 291 290 290 289 288 287 286 285 285 285 284 284 283 283 283 283 283 283
296 296 296 296 296 296 297 298 298 297 297 299 301 299 297 295 295 295 295 295 295 295 293 293 293 293 292 292 292 290 289 289 289 289 289 289 289 289 287 286 286 285 285 285 284 283 283 283 283 282 282 282 282 282
295 295 296 296 297 297 294 293 294 293 295 296 297 296 294 292 293 293 294 294 292 292 293 292 292 291 291 291 290 290 289 289 288 287 287 287 286 286 286 285 285 285 285 284 283 283 282 282 282 282 281 280 280 280
295 296 296 296 295 293 292 292 293 293 294 295 297 296 295 292 291 291 291 291 292 291 291 291 291 290 289 289 288 289 288 288 287 286 286 286 285 286 285 285 285 284 283 283 282 282 282 281 281 280 279 279 279 279
295 295 296 296 294 292 292 293 294 295 295 295 294 292 292 294 294 291 291 290 290 291 290 290 290 290 290 288 288 287 286 286 287 287 286 286 286 286 286 285 284 283 283 282 282 281 281 280 280 279 279 278 278 278
293 294 295 295 295 294 293 295 296 295 296 296 293 293 293 295 294 291 290 290 290 289 290 290 290 290 289 288 288 287 287 287 286 286 286 286 286 285 284 284 283 283 283 282 282 281 280 279 279 279 279 279 279 279
Wind_Speed
27 29 31 30 29 29 29 28 28 29 28 27 27 26 26 26 26 25 33 25 27 27 37 32 36 39 34 33 18 29 14 8 8 7 6 8 9 17 20 27 26 21 16 15 11 9 17 21 17 31 18 21 22 20
29 30 30 29 29 28 27 28 28 27 27 27 27 27 28 28 27 25 33 30 27 35 31 37 44 42 40 48 42 33 21 20 6 4 4 6 12 14 21 17 24 22 14 11 12 14 17 11 10 17 14 14 13 11
28 28 27 27 27 27 27 27 27 27 28 29 29 28 27 27 26 26 30 30 31 33 38 38 36 39 38 37 34 27 22 16 12 19 7 5 9 7 11 10 23 21 15 9 9 5 15 13 15 11 5 5 2 4
26 26 26 26 26 26 27 26 26 26 28 29 29 28 25 25 27 24 29 30 27 14 8 30 28 30 32 30 31 33 40 34 29 18 7 4 6 11 14 13 12 11 12 12 5 15 16 19 11 13 10 25 23 24
24 23 23 23 23 23 24 25 27 28 28 26 26 25 25 24 24 26 28 31 31 28 8 18 32 46 32 20 28 26 28 31 20 6 5 4 9 11 8 12 12 11 7 6 5 14 9 7 12 13 16 17 24 27
22 21 21 21 23 24 26 27 27 28 26 24 24 22 22 23 23 23 9 10 14 37 13 5 13 18 12 17 29 22 22 21 15 5 3 6 18 10 4 6 7 22 36 25 13 37 37 18 12 2 14 27 30 33
20 20 21 22 23 25 26 24 23 24 23 23 22 22 19 17 18 21 11 11 3 19 6 4 5 4 4 11 12 17 20 12 11 5 5 4 14 5 4 6 12 22 34 10 9 31 16 18 13 17 8 20 31 30
18 19 20 22 23 22 23 22 20 18 17 15 20 20 20 19 21 28 32 29 26 20 9 4 5 4 6 5 4 8 5 8 8 4 4 3 4 2 3 10 18 30 23 18 26 25 27 27 33 29 29 29 33 31
17 18 18 19 19 19 17 18 19 18 16 16 20 21 23 20 15 20 18 12 14 15 4 5 4 2 7 6 4 4 5 3 3 2 1 2 2 2 6 11 15 23 25 18 36 32 25 28 23 18 20 22 26 21
16 16 16 15 16 17 15 15 14 14 15 18 22 10 6 6 13 11 5 5 12 9 8 4 3 3 7 7 4 2 4 2 1 1 2 2 2 4 13 12 14 17 25 27 30 27 26 28 24 19 17 17 20 18
14 14 15 16 16 14 12 12 11 14 16 11 6 6 12 15 10 6 5 6 8 4 9 11 17 4 4 4 1 6 2 2 1 2 1 4 4 5 10 12 14 20 24 25 27 25 25 22 20 21 21 20 17 15
13 13 15 16 15 14 12 12 12 13 15 17 16 22 11 4 5 4 4 4 6 4 6 5 7 11 5 3 3 1 2 2 2 1 2 3 1 5 7 5 11 13 17 19 20 19 19 19 19 19 18 18 14 12
13 15 15 13 13 16 11 12 12 15 20 13 4 4 5 5 5 5 4 4 3 5 4 5 6 5 4 5 2 3 2 1 1 3 3 1 5 7 8 6 7 10 15 16 13 11 14 15 12 13 12 11 11 10
14 16 14 13 16 11 11 12 12 14 7 4 4 5 4 4 5 2 2 4 4 5 4 9 4 2 1 2 2 2 2 2 2 3 3 2 10 8 10 13 13 13 14 12 10 9 8 9 8 10 8 6 5 4
15 17 13 14 8 9 10 12 13 10 4 5 5 5 4 5 11 6 6 2 1 1 4 3 1 3 1 1 2 0 2 0 5 4 7 11 13 13 13 13 14 13 11 13 10 10 10 10 8 8 8 4 1 2
11 11 10 5 6 10 13 11 8 9 4 5 6 6 12 9 9 8 5 5 1 3 5 4 1 1 1 1 2 2 2 4 6 5 16 16 14 14 13 12 12 11 11 10 10 9 8 8 7 7 6 6 6 7
10 5 4 4 10 10 9 7 6 5 5 5 6 10 13 15 9 10 6 4 3 5 2 2 2 4 2 3 3 4 6 8 16 16 16 15 14 12 11 9 8 8 8 8 7 5 6 5 5 6 7 5 8 7
11 8 8 9 10 9 5 8 5 5 6 10 9 12 11 8 6 4 5 4 1 2 4 4 4 2 3 3 4 8 16 17 16 17 15 13 11 9 7 7 6 6 7 7 8 7 8 8 7 8 9 10 11 13
11 11 8 10 9 6 3 6 6 5 10 12 11 9 7 5 5 4 2 1 3 3 3 4 2 5 6 8 10 14 14 16 16 15 13 10 9 6 5 4 5 7 9 10 11 12 12 12 13 14 15 16 17 17
14 14 13 13 12 4 4 5 6 6 5 5 5 5 3 3 1 4 4 4 3 3 3 3 4 10 9 11 13 13 14 15 14 12 8 5 4 3 4 6 8 9 10 10 10 10 10 10 11 12 13 13 14 13
8 11 9 10 11 12 5 4 6 6 5 4 3 3 1 3 6 11 6 7 11 5 3 6 7 8 10 11 13 13 10 8 7 6 3 4 3 4 6 7 8 8 9 9 9 10 10 11 12 12 13 14 17 24
9 7 7 10 6 5 6 6 4 4 3 4 3 3 2 3 5 5 6 10 5 11 11 12 13 11 13 13 12 11 10 10 10 7 6 5 5 6 7 7 8 9 9 11 12 12 10 11 14 19 24 27 27 25
7 8 4 6 4 4 1 3 3 3 2 2 3 3 3 1 4 4 2 7 4 7 11 11 12 11 11 9 9 10 9 7 4 3 4 5 6 6 6 7 8 11 12 10 12 15 18 19 18 21 23 24 25 25
7 5 4 4 6 3 2 2 2 2 0 0 1 2 3 2 3 2 2 6 8 5 6 6 5 6 6 7 8 6 7 6 4 3 5 6 6 7 9 10 10 10 13 19 18 18 18 21 25 22 21 23 24 24
4 5 4 4 3 2 2 2 1 1 1 1 2 2 1 2 2 0 2 4 5 7 6 4 5 5 5 5 4 6 7 6 6 7 8 8 8 12 13 13 17 19 18 18 18 20 23 23 21 20 22 21 21 22
4 5 4 5 4 4 5 4 4 3 2 2 1 2 1 1 2 2 3 6 7 4 5 6 5 5 7 6 5 3 7 9 9 7 8 13 14 14 16 17 17 14 13 18 22 20 19 19 20 19 20 19 18 18
3 4 4 4 2 2 1 2 4 3 1 3 3 2 2 2 2 3 7 7 6 5 7 9 9 8 7 5 4 5 7 10 12 13 15 14 12 12 12 12 14 16 23 19 16 15 16 16 18 17 15 15 14 15
3 4 5 4 1 1 1 1 3 2 2 3 4 1 1 2 2 3 5 6 6 6 6 6 7 6 4 4 8 12 15 16 14 10 8 6 8 10 10 12 19 19 14 13 14 15 16 16 13 12 12 13 14 13
2 4 5 3 1 2 1 1 1 2 2 0 3 2 3 4 6 9 5 4 5 5 3 3 4 6 9 11 12 12 11 13 11 11 11 11 11 10 18 15 14 13 14 14 12 12 11 11 11 11 11 10 10 10
4 4 3 2 1 2 2 3 2 2 2 3 4 7 9 8 7 7 5 3 3 5 4 6 9 11 13 13 11 10 9 10 11 13 11 11 13 13 14 15 12 12 12 11 10 10 9 9 9 10 11 12 12 12
4 3 3 3 2 2 2 4 5 5 5 6 10 12 10 6 5 6 6 7 6 5 5 8 10 11 12 10 11 10 8 9 13 12 12 10 9 11 11 10 10 10 9 9 9 10 9 10 10 10 13 13 13 13
2 1 4 3 3 3 3 1 1 3 2 3 4 4 4 4 3 2 5 4 3 5 8 9 10 10 10 9 7 6 9 10 13 12 11 9 8 7 7 8 8 8 8 8 9 10 10 10 11 11 10 12 12 13
4 4 5 6 4 4 2 2 2 3 3 3 2 2 2 2 3 2 4 1 2 6 9 9 9 9 8 8 7 8 9 10 10 10 8 8 7 7 6 6 7 7 8 8 9 9 10 11 11 11 12 13 13 14
Wind_Direction
283 284 286 287 289 289 290 288 290 289 285 284 281 281 277 276 275 274 271 265 261 270 272 266 271 265 271 270 272 274 284 254 231 232 246 259 279 271 258 246 250 246 203 219 238 243 250 235 259 232 252 227 223 226
290 290 289 288 292 292 290 288 287 285 284 282 280 280 279 274 271 274 274 269 265 265 266 272 268 259 253 270 267 265 266 267 241 275 263 300 281 280 276 265 247 244 199 209 204 209 250 32 338 355 333 90 310 241
293 294 295 293 291 290 287 285 285 285 283 282 279 281 279 270 268 270 269 268 272 277 288 268 263 282 269 246 254 258 261 250 241 244 259 249 262 290 288 250 258 249 178 180 268 292 345 336 344 356 317 187 231 241
297 294 293 292 291 288 285 285 285 287 292 286 283 281 278 273 273 267 266 262 265 260 273 279 277 269 270 250 247 245 252 256 254 254 233 255 270 276 286 295 278 291 177 197 205 279 317 314 336 359 45 77 81 91
292 295 294 295 296 294 292 288 290 291 289 285 286 281 278 275 269 269 270 264 257 245 280 288 292 283 270 245 237 246 254 252 240 212 220 247 272 268 271 274 254 263 251 184 222 188 198 266 307 9 69 92 95 92
293 292 293 296 301 301 297 294 291 292 288 285 289 281 277 269 269 272 272 247 239 238 244 261 277 279 265 238 232 241 250 252 238 216 235 234 248 252 269 273 286 355 336 279 196 179 187 197 186 146 59 81 92 89
291 290 292 296 297 298 299 297 296 294 292 285 284 281 279 285 272 252 238 209 312 334 280 258 258 33 165 211 238 242 244 231 227 235 226 248 270 314 262 268 316 334 324 221 94 151 109 141 127 134 158 112 118 112
294 294 296 298 300 300 300 300 298 299 297 283 294 307 297 284 278 269 264 265 275 276 233 263 267 184 196 221 234 200 212 201 215 244 240 236 264 218 270 336 356 352 356 102 109 116 130 120 111 116 124 121 106 98
296 297 300 302 305 306 301 300 298 296 290 285 299 304 292 270 257 262 277 267 225 214 244 235 264 286 179 227 226 211 211 230 195 242 231 237 325 29 302 346 3 358 11 92 113 121 127 113 114 115 110 109 111 112
294 299 300 304 310 311 310 310 304 296 295 307 300 281 259 221 249 282 254 214 196 210 225 251 256 261 195 196 203 268 205 233 220 85 258 325 67 355 7 6 11 33 46 62 85 88 94 98 105 105 105 107 115 123
294 298 297 298 303 305 310 313 309 309 310 295 326 248 296 299 301 220 216 206 191 218 215 226 226 242 263 233 176 208 331 284 169 78 322 7 22 7 16 21 46 59 67 64 70 80 92 104 126 132 120 109 114 124
289 292 293 303 291 301 293 308 305 313 306 313 305 300 292 254 231 241 210 203 215 244 187 198 188 202 212 204 223 68 312 326 19 218 122 23 65 46 39 21 37 85 90 87 86 87 88 90 98 107 121 127 124 122
287 287 289 293 290 296 280 297 296 304 311 317 269 256 247 233 238 235 201 213 212 186 128 144 193 194 146 217 216 166 246 15 272 29 65 189 156 141 131 96 75 68 88 101 104 105 107 106 116 108 106 112 125 135
285 290 286 279 294 281 280 291 297 312 319 285 265 257 252 204 234 312 4 344 52 86 159 211 157 309 69 205 170 233 64 191 265 98 102 135 124 112 119 141 132 120 109 109 108 108 104 91 95 100 85 81 101 106
290 288 269 284 276 284 292 290 289 290 265 272 255 253 252 316 268 344 1 44 44 253 233 98 173 173 48 48 293 167 220 93 16 89 129 128 118 118 114 104 95 100 107 107 111 121 117 107 116 112 102 92 194 249
285 285 292 265 262 284 289 289 283 202 238 246 246 271 315 330 355 349 0 35 29 269 269 264 54 234 119 144 210 284 348 62 118 105 124 127 124 115 107 97 85 83 81 82 77 72 58 58 48 32 13 358 337 326
272 256 290 293 293 294 269 218 174 217 244 242 251 274 284 280 302 354 11 337 194 259 326 13 336 16 25 314 66 354 88 105 113 128 132 127 122 115 107 102 92 78 68 61 54 32 18 357 343 341 336 328 320 310
242 261 273 280 305 326 214 198 222 240 248 255 267 290 309 319 316 343 335 311 243 345 355 4 302 291 348 67 92 91 110 127 120 117 122 121 118 109 96 87 63 43 29 13 354 353 345 338 325 319 314 311 309 311
228 249 258 267 289 305 227 222 222 261 244 259 269 277 288 308 302 300 189 236 10 8 357 317 342 24 62 98 117 119 118 114 117 117 114 110 99 92 77 43 16 4 358 351 345 339 331 324 319 316 312 310 309 311
237 242 242 243 253 248 243 228 210 249 272 254 269 276 312 337 317 149 152 273 343 39 23 41 44 44 73 93 108 112 109 109 107 104 100 98 76 50 14 356 348 339 333 330 323 318 315 311 307 304 302 304 303 292
262 267 249 220 216 223 268 241 227 243 293 267 248 268 98 183 149 147 226 70 48 24 73 91 95 70 80 90 93 99 107 113 95 100 97 105 58 3 334 327 322 317 311 311 314 311 313 316 312 299 289 291 299 304
249 206 196 194 224 233 243 236 254 289 266 262 222 172 78 91 140 189 66 74 65 78 96 118 127 120 96 88 85 80 69 62 56 45 30 16 344 317 315 316 317 318 319 321 322 320 316 295 300 307 313 312 314 316
242 201 219 213 235 241 224 197 244 218 237 258 172 117 100 112 241 203 58 81 95 82 94 87 88 94 92 84 74 61 48 44 33 9 346 324 313 319 326 327 327 327 327 318 297 306 315 314 323 324 321 318 319 321
208 206 221 211 223 260 215 264 249 292 45 101 222 107 109 166 183 89 138 102 114 113 101 88 86 77 67 68 58 30 27 33 23 15 360 344 339 334 334 333 326 307 310 313 326 321 317 317 318 324 326 324 323 322
199 207 203 204 228 200 221 153 236 234 196 211 69 94 117 211 147 320 113 91 101 73 60 58 62 51 40 71 57 33 29 20 18 3 353 324 321 320 318 310 314 324 322 322 318 318 318 325 327 326 325 327 326 326
246 174 203 197 183 211 192 169 191 191 118 61 49 117 232 147 83 84 63 55 60 66 63 60 53 88 65 84 81 41 357 357 349 342 317 311 319 318 320 324 328 328 322 318 316 322 325 324 326 328 326 327 331 332
222 194 201 230 231 176 102 94 121 108 146 168 163 178 164 142 107 83 104 75 104 83 76 71 77 89 79 58 21 1 319 311 318 317 315 323 331 324 326 327 323 314 319 324 328 327 327 327 322 328 333 333 338 341
238 195 183 168 143 197 81 114 157 159 185 142 146 123 103 76 90 73 119 116 93 85 85 91 89 67 35 348 330 324 320 327 334 352 349 336 332 325 306 307 315 321 337 342 331 324 323 329 340 345 353 359 349 350
198 157 125 123 145 117 66 55 106 69 360 146 145 116 112 84 108 127 114 100 128 150 141 75 23 358 341 343 343 352 356 354 5 0 351 339 335 322 318 332 338 334 331 335 337 340 359 15 16 11 4 358 7 358
153 172 126 120 86 75 65 14 87 127 63 57 85 112 97 117 129 121 113 157 120 105 66 15 355 350 354 356 358 1 357 348 343 342 334 331 327 327 326 330 339 344 350 352 2 13 26 25 22 14 21 25 25 19
144 149 104 84 89 80 132 132 101 75 106 93 104 109 111 125 95 85 114 118 104 61 15 4 1 353 352 356 349 347 349 329 329 335 334 331 318 321 334 345 353 357 4 15 22 31 36 29 35 28 28 29 29 28
106 107 149 124 115 144 128 114 91 92 86 83 66 90 100 111 106 131 143 117 89 18 5 354 352 347 346 345 345 340 331 331 332 337 341 343 345 350 356 359 5 19 29 30 32 37 40 41 34 39 36 32 34 32
112 105 111 116 132 161 158 135 117 105 83 91 83 99 86 74 108 170 172 143 5 347 346 347 341 338 337 343 344 350 338 334 344 352 360 6 13 15 13 20 29 36 39 40 43 46 43 39 46 41 38 37 37 38